Regional Weather Roundup
Issued by NWS

Home | Current Version | Previous Version | Graphics & Text | Print | Product List | Glossary On
Versions: 1 2 3 4 5 6 7 8 9 10 11 12 13 14 15 16 17 18 19 20 21 22 23 24 25 26 27
000
ASUS45 KTFX 050110
RWRMT
MONTANA REGIONAL WEATHER ROUNDUP
NATIONAL WEATHER SERVICE GREAT FALLS MT
600 PM MST SUN DEC 04 2016

NOTE: "FAIR" INDICATES FEW OR NO CLOUDS BELOW 12000 FEET WITH NO
SIGNIFICANT WEATHER AND/OR OBSTRUCTIONS TO VISIBILITY.

MTZ001>007-043-050200-
WEST OF THE DIVIDE

CITY           SKY/WX    TMP DP  RH WIND       PRES   REMARKS
KALISPELL      CLOUDY    31  24  75 S6        29.62R WCI  25
MISSOULA       MOCLDY    33  24  69 NW13      29.69R WCI  24
BUTTE          LGT SNOW  28  25  88 NW15G24   29.58R FOG     WCI  16
MULLAN PASS    SNOW      18  15  88 NW13G28   29.59S VSB 1/4 WCI   5
ANACONDA         N/A     30  21  69 W6        29.60R WCI  24
DEER LODGE       N/A     30  23  74 NW13G25   29.63R WCI  20
EUREKA           N/A     36  19  51 CALM      29.62S
HAMILTON         N/A     32  27  80 S3        29.69R
LIBBY            N/A     30  27  86 CALM      29.66R
$$

MTZ008-052>055-050200-
SOUTHWEST MONTANA

CITY           SKY/WX    TMP DP  RH WIND       PRES   REMARKS
BOZEMAN        PTCLDY    37  24  59 W13       29.55R WCI  29
DILLON         FLURRIES  31  26  82 SW12      29.56F WCI  22
W YELLOWSTONE  LGT SNOW  27  25  93 W5G20     29.60F
ENNIS          MOCLDY    32  25  74 S15G22    29.60F WCI  22
THREE FORKS      N/A     33 -24   8 CALM      29.59R
TWIN BRIDGES     N/A     33  24  70 S2        29.62S
$$

MTZ009-010-012-014-046-048-049-054-050200-
EAST SLOPES AND CENTRAL MONTANA

CITY           SKY/WX    TMP DP  RH WIND       PRES   REMARKS
CUT BANK       CLOUDY    22  19  89 N15       29.60R WCI   9
GREAT FALLS    CLOUDY    30  26  85 NW7       29.57R WCI  23
MALMSTROM AFB  FLURRIES  31  28  88 W7        29.58R WCI  24
HELENA         CLOUDY    35  19  52 W18G24    29.59R WCI  24
AUGUSTA        MOCLDY    23  20  85 N18       29.55R WCI   9
BOWMANS CRNR   FLURRIES  27  23  84 NW15      29.55R WCI  15
CHOTEAU          N/A     25  21  86 NW15G24   29.60R WCI  12
FAIRFIELD      MOCLDY    27  24  90 NW16      29.57R WCI  15
POWER          FLURRIES  28  26  92 NW16G23   29.56R WCI  16
RAYNESFORD     FLURRIES  29  27  95 NW15G22   29.56R WCI  17
ULM            CLOUDY    30  26  83 N16G23    29.58R WCI  19
$$

MTZ011-013-016-021-045-047-050-051-050200-
NORTH CENTRAL MONTANA

CITY           SKY/WX    TMP DP  RH WIND       PRES   REMARKS
HAVRE          CLOUDY    33  32  96 SW12      29.50F WCI  24
LEWISTOWN      LGT SNOW  31  27  85 NW17G28   29.51R FOG     WCI  19
N BAR RANCH    MIX PCPN  36  27  69 W16G25    29.49R WCI  26
CHINOOK          N/A     34  30  86 W5        29.51R
DENTON         LGT SNOW  31  29  91 NW26G44   29.50R WCI  17
GEYSER         FLURRIES  29  25  82 N12G18    29.52R WCI  20
GRASS RANGE    MOCLDY    38  25  60 W15G22    29.44S WCI  29
JUDITH GAP     FLURRIES  29  27  92 N7        29.50R WCI  22
ROY            LGT SNOW  33  28  82 MISG      29.48R
STANFORD       SNOWSHWR  28  27  96 N16G26    29.52R WCI  16
WINIFRED       LGT RAIN  31  29  94 MISG      29.50R
$$

MTZ017>020-022>027-061-062-050200-
NORTHEAST MONTANA

CITY           SKY/WX    TMP DP  RH WIND       PRES   REMARKS
GLASGOW        CLOUDY    33  30  88 NE8       29.49F WCI  26
JORDAN           N/A     34  24  67 S5        29.48F
SIDNEY         MOCLDY    25  21  85 SW6       29.56F WCI  18
WOLF POINT     MOCLDY    34  24  67 CALM      29.52F
PLENTYWOOD       N/A     27  21  80 E5        29.54F
POPLAR           N/A     34  25  69 CALM      29.53F
SCOBEY           N/A     30  18  61 SW2       29.52F
$$

MTZ028>42-056>058-050200-
SOUTHCENTRAL AND SOUTHEAST MONTANA

CITY           SKY/WX    TMP DP  RH WIND       PRES   REMARKS
BAKER          CLEAR     28  21  75 S13       29.57F WCI  17
BILLINGS       CLOUDY    41  19  41 SW12      29.51F
LIVINGSTON     CLOUDY    37  23  56 SW29G39   29.48F WCI  25
MILES CITY     CLEAR     33  21  61 S7        29.53F WCI  27
BIG TIMBER     CLOUDY    36  25  64 W13       29.51F WCI  27
FORSYTH          N/A     37  25  60 CALM      29.53F
HARLOWTON      FLURRIES  33  28  83 W12       29.51R WCI  24
LAUREL           N/A     39  17  41 SW8       29.54F
ROUNDUP          N/A     37  18  46 S5        29.45S
$$

REGIONAL REPORTS...DAKOTAS

CITY           SKY/WX    TMP DP  RH WIND       PRES   REMARKS
WILLISTON      CLOUDY    26  20  77 CALM      29.57F
MINOT          CLEAR     15  13  91 CALM      29.62F
DICKINSON      CLEAR     19  14  81 S9        29.57F WCI   8
BEACH          CLOUDY    30  23  74 S10       29.59F WCI  21
CROSBY           N/A     19  19 100 SE6       29.59F WCI  11
TIOGA            N/A     18  18 100 E5        29.59F
WATFORD CITY     N/A     25  19  80 CALM      29.58F
BISMARCK       CLEAR     17  16  95 E3        29.67F
GRAND FORKS    CLOUDY    31  26  82 W13       29.65S WCI  21
FARGO          CLEAR     28  24  85 SW5       29.69S
BUFFALO SD       N/A     34  22  61 S6        29.53F WCI  29
RAPID CITY     CLOUDY    37  17  44 S7        29.63F WCI  32
$$

REGIONAL REPORTS...WYOMING/IDAHO/WASHINGTON

CITY           SKY/WX    TMP DP  RH WIND       PRES   REMARKS
GILLETTE       CLOUDY    32  21  64 S5        29.58F
SHERIDAN       CLOUDY    35  19  52 S7        29.54F WCI  29
BUFFALO WY     CLOUDY    33  16  49 N6        29.54F WCI  28
YELLOWSTONE LA   N/A     24  22  91 W8G21     29.60F WCI  15
IDAHO FALLS    CLOUDY    35  28  75 SW22G29   29.71F WCI  23
SALMON         CLOUDY    28  27  93 SW7       29.65S WCI  21
BOISE          LGT RAIN  41  39  93 W10       29.82S
SPOKANE        MOCLDY    31  26  82 W9        29.80R WCI  23
$$

REGIONAL REPORTS...ALBERTA

CITY           SKY/WX    TMP DP  RH WIND       PRES   REMARKS
EDMONTON       LGT SNOW  12   9  85 N18       29.75R VSB 3/4 WCI  -5
CALGARY        CLOUDY    19  10  68 N6        29.67R WCI  11
LETHBRIDGE     LGT SNOW  23  21  93 N12       29.68R WCI  12
MEDICINE HAT   LGT SNOW  25  23  93 N17G24    29.65R DRFTSNOWWCI  11
WATERTON GATE    N/A     21  18  86 N8          N/A  WCI  12
MILK RIVER       N/A     23  21  93 N17G24      N/A  WCI   9
ONEFOUR          N/A     27  27 100 W16         N/A  WCI  14
$$

REGIONAL REPORTS...SASKATCHEWAN

CITY           SKY/WX    TMP DP  RH WIND       PRES   REMARKS
SWIFT CURRENT  MOCLDY    18  16  93 N6        29.52S WCI   9
REGINA         CLOUDY    19  18  93 E8        29.56F WCI   9
SASKATOON      PTCLDY    16  14  93 W8        29.60R WCI   5
CYPRESS HILLS    N/A     19  16  86 N9          N/A  WCI   9
VAL MARIE        N/A     30  28  93 S9          N/A  WCI  22
ROCKGLEN         N/A     28  28 100 E5          N/A
$$




USA.gov is the U.S. government's official web portal to all federal, state and local government web resources and services.